Location: Baili�vre
(50.0696°N, 4.2409°E)
Time: 23:57:33
(UTC+00:00)

Cosmos 1500 - Pass Details

Date: 08 August 2020
Orbit: 500 x 518 km, 82.5° (Epoch: 23 September)

Event Time Altitude Azimuth Distance (km) Brightness Sun altitude
Exits shadow 22:25:15 66° 245° (WSW) 553 3.2 -21.6°
Maximum altitude 22:25:33 70° 281° (W) 538 3.2 -21.6°
Drops below altitude 10° 22:29:18 10° 6° (N) 1,720 6.7 -21.9°
Sets 22:31:27 0° 9° (N) 2,611 7.8 -22.0°
